Location: Newark
(48.6461°N, 4.3644°W)
Time: 14:37:27
(UTC+00:00)

A-11 Canister half - Pass Details

Date: 03 February 2020
Orbit: 1517 x 1683 km, 47.2° (Epoch: 28 February)

Event Time Altitude Azimuth Distance (km) Brightness Sun altitude
Rises 20:54:33 0° 218° (SW) 4,812 11.8 -35.7°
Reaches altitude 10° 20:57:52 10° 213° (SSW) 3,805 11.2 -36.2°
Enters shadow 21:02:39 30° 194° (SSW) 2,542 10.0 -37.0°
